Showing default

TEMISAT, 22783

Orbit data source: Space-Track

TEMISAT, 22783 is a payload satellite owned by Telespazio (IT) in LEO that was launched on Tue, 31 Aug 1993 UTC via a TSIKLON-3 launch vehicle from the Plesetsk Missile And Space Complex (PKMTR). Payload-class satellites include a variety of spacecraft equipped with specific instruments for various scientific and technological missions. These include communications satellites like Starlink; space stations such as the ISS; scientific satellites like the Hubble; Earth observation satellites from companies like Planet Labs, Umbra, and HawkEye 360; GPS; miniature CubeSats for education and research; and military/defense satellites.

Loading next visibility...
Identifier
22783, 1993-055B
Orbit
LEO
Country
Flag of ITIT
Related business
Manufacturer
Kayser-Threde
Mission
Commercial Communications
Bus & Motor
TEMISAT, Unknown motor
Mass
~42 kg wet, ~42 kg dry
Launch date (UTC)
1993-08-31 (32 years ago)
Launch vehicle
TSIKLON-3
Launch site
Plesetsk Missile And Space Complex (PKMTR)
Object type
Payload
Rocket body
Debris
Shape & HBR
Hex Poly, 0.2 m
Radar Cross Section
0.140 m², Medium (>0.1 m² and < 1m²)

Expand to show TLE details & history
Last TLE update: 2 days ago

TLE from 2 days ago
0 TEMISAT
1 22783U 93055B   25306.46613219  .00000073  00000-0  52413-4 0  9991
2 22783  82.5476 117.8704 0023880 123.2386 237.1067 13.83876888624356
Epoch: 2025-11-02T11:11Z
TLE epoch observation values (Epoch: 2025-11-02T11:11:13.821Z)
Latitude
-0.00005°
Longitude
-91.91865°
Altitude
962.605 km
Speed
7.366 km/s
True Right ascension
07h 51m 28s
True Declination
0° 00' 00"
Sunlit
Object was in daylight at epoch
Visualization orbit readout
Latitude
Unknown
Longitude
Unknown
Altitude
Unknown
Speed
Unknown
Apparent Right ascension
Unknown
Apparent Declination
Unknown
Sunlit
N/A
Visualization observer readout
Local Sidereal Time
00:03:59
Azimuth
Unknown
Elevation
Unknown
Doppler factor
Unknown
Orbital elements
Apogee altitude
964.813 km
Perigee altitude
929.827 km
Semi-major axis
7,325.457 km
Eccentricity
0.00239
Inclination
82.5476°
RAAN
117.8704°
Arg. of periapsis
123.2386°
True anomaly
236.8773°
Mean anomaly
237.1067°
Eccentric anomaly
236.99196°
Mean motion
3.46171 °/min
Orbital period
103.99 mins
BSTAR
0.000052413
Loading maneuver chart data...
Computing Atmospheric mass density...
Loading historical data...
Loading historical data...
Loading historical data...
Loading historical data...
Loading historical data...
Loading historical data...
Loading historical data...
Other satellites on launch #55 in the year 1993 (1993-08-31 UTC)

Documentation

Showing up to 5 results
|